Weather History for Zephyrhills, FL

Change the Weather History Date:

Wednesday, December 18, 2013

  Actual Average (KPCM) Record (KPCM)
Temperature  
Mean Temperature 51 °F -  
Max Temperature 69 °F 72 °F 86 °F (1961)
Min Temperature 33 °F 46 °F 26 °F (1973)
Degree Days  
Heating Degree Days 14    
Growing Degree Days 1 (Base 50)    
Moisture  
Dew Point 39 °F    
Average Humidity 75    
Maximum Humidity 100    
Minimum Humidity 28    
Precipitation  
Precipitation 0.00 in - - ()
Sea Level Pressure  
Sea Level Pressure 30.27 in    
Wind  
Wind Speed 2 mph (NNE)    
Max Wind Speed 13 mph    
Max Gust Speed 17 mph    
Visibility 9 miles    
Events Fog    
Averages and records for this station are not official NWS values.
T = Trace of Precipitation, MM = Missing Value Source: NWS Daily Summary

Daily Weather History Graph

Daily Weather History Graph

Search for Another Location

Airport:

Trip Planner

Search our weather history database for the weather conditions in past years. The results will help you decide how hot, cold, wet, or windy it might be!

Date:

Astronomy

Dec. 18, 2013 Rise Set
Actual Time 7:14 AM EST 5:36 PM EST
Civil Twilight 6:48 AM EST 6:01 PM EST
Nautical Twilight 6:19 AM EST 6:31 PM EST
Astronomical Twilight 5:50 AM EST 7:00 PM EST
Moon 6:59 PM EST (12/18) 7:59 AM EST (12/18)
Length of Visible Light 11h 12m
Length of Day
10h 21m
Full, 98% of the Moon is Illuminated
Dec 18
Full
Dec 25
Last Quarter
Jan 1
New
Jan 7
First Quarter
Jan 15
Full

Hourly Weather History & Observations

Time (EST) Temp. Windchill Dew Point Humidity Pressure Visibility Wind Dir Wind Speed Gust Speed Precip Events Conditions
12:15 AM 41.0 °F - 41.0 °F 100% 30.23 in 10.0 mi Calm Calm - N/A   Clear
12:35 AM 41.0 °F - 41.0 °F 100% 30.23 in 10.0 mi Calm Calm - N/A   Clear
12:55 AM 41.0 °F - 41.0 °F 100% 30.24 in 4.0 mi Calm Calm - N/A   Clear
1:15 AM 41.0 °F - 41.0 °F 100% 30.24 in 2.0 mi Calm Calm - N/A   Clear
1:35 AM 37.4 °F - 37.4 °F 100% 30.24 in 10.0 mi Calm Calm - N/A   Clear
1:55 AM 39.2 °F - 39.2 °F 100% 30.23 in 4.0 mi Calm Calm - N/A   Clear
2:15 AM 39.2 °F - 39.2 °F 100% 30.24 in 10.0 mi Calm Calm - N/A   Clear
2:35 AM 37.4 °F - 37.4 °F 100% 30.24 in 10.0 mi Calm Calm - N/A   Clear
2:55 AM 37.4 °F - 37.4 °F 100% 30.24 in 0.5 mi Calm Calm - N/A Fog Fog
3:15 AM 37.4 °F - 37.4 °F 100% 30.24 in 1.0 mi Calm Calm - N/A   Mist
3:35 AM 37.4 °F - 37.4 °F 100% 30.24 in 3.0 mi Calm Calm - N/A   Clear
3:55 AM 37.4 °F - 37.4 °F 100% 30.24 in 1.5 mi Calm Calm - N/A   Mist
4:15 AM 35.6 °F - 35.6 °F 100% 30.24 in 10.0 mi Calm Calm - N/A   Clear
4:35 AM 35.6 °F - 35.6 °F 100% 30.24 in 10.0 mi Calm Calm - N/A   Clear
4:55 AM 35.6 °F - 35.6 °F 100% 30.24 in 10.0 mi Calm Calm - N/A   Clear
5:15 AM 33.8 °F - 33.8 °F 100% 30.24 in 2.5 mi Calm Calm - N/A   Clear
5:35 AM 35.6 °F - 35.6 °F 100% 30.25 in 10.0 mi Calm Calm - N/A   Clear
5:55 AM 33.8 °F - 33.8 °F 100% 30.25 in 7.0 mi Calm Calm - N/A   Clear
6:15 AM 33.8 °F 30.8 °F 33.8 °F 100% 30.26 in 10.0 mi NNE 3.5 mph - N/A   Clear
6:35 AM 33.8 °F 30.8 °F 33.8 °F 100% 30.27 in 10.0 mi NNE 3.5 mph - N/A   Clear
6:55 AM 33.8 °F - 33.8 °F 100% 30.28 in 10.0 mi Calm Calm - N/A   Clear
7:15 AM 35.6 °F - 35.6 °F 100% 30.28 in 10.0 mi Calm Calm - N/A   Clear
7:35 AM 35.6 °F - 35.6 °F 100% 30.29 in 10.0 mi Calm Calm - N/A   Clear
7:55 AM 35.6 °F - 35.6 °F 100% 30.29 in 10.0 mi Calm Calm - N/A   Clear
8:15 AM 41.0 °F 38.0 °F 41.0 °F 100% 30.29 in 10.0 mi NNE 4.6 mph - N/A   Clear
8:35 AM 42.8 °F 40.1 °F 42.8 °F 100% 30.30 in 10.0 mi NNE 4.6 mph - N/A   Clear
8:55 AM 46.4 °F 43.5 °F 46.4 °F 100% 30.30 in 10.0 mi North 5.8 mph - N/A   Clear
9:15 AM 50.0 °F - 46.4 °F 87% 30.31 in 10.0 mi North 8.1 mph - N/A   Clear
9:35 AM 53.6 °F - 46.4 °F 77% 30.31 in 10.0 mi NNE 11.5 mph - N/A   Clear
9:55 AM 55.4 °F - 46.4 °F 72% 30.31 in 10.0 mi NNE 10.4 mph - N/A   Clear
10:15 AM 59.0 °F - 44.6 °F 59% 30.32 in 10.0 mi North 10.4 mph - N/A   Clear
10:35 AM 60.8 °F - 37.4 °F 42% 30.31 in 10.0 mi NNE 10.4 mph - N/A   Clear
10:55 AM 62.6 °F - 35.6 °F 37% 30.32 in 10.0 mi NNE 11.5 mph 17.3 mph N/A   Clear
11:15 AM 62.6 °F - 35.6 °F 37% 30.31 in 10.0 mi North 12.7 mph 17.3 mph N/A   Clear
11:35 AM 64.4 °F - 35.6 °F 34% 30.31 in 10.0 mi NNE 9.2 mph - N/A   Clear
11:55 AM 64.4 °F - 35.6 °F 34% 30.30 in 10.0 mi NNE 9.2 mph - N/A   Clear
12:15 PM 64.4 °F - 35.6 °F 34% 30.29 in 10.0 mi North 8.1 mph - N/A   Clear
12:35 PM 68.0 °F - 35.6 °F 30% 30.28 in 10.0 mi North 8.1 mph - N/A   Clear
12:55 PM 68.0 °F - 35.6 °F 30% 30.27 in 10.0 mi NE 9.2 mph - N/A   Clear
1:15 PM 68.0 °F - 35.6 °F 30% 30.26 in 10.0 mi NNE 6.9 mph - N/A   Clear
1:35 PM 69.8 °F - 35.6 °F 28% 30.25 in 10.0 mi ENE 5.8 mph - N/A   Clear
1:55 PM 69.8 °F - 35.6 °F 28% 30.25 in 10.0 mi North 9.2 mph - N/A   Clear
2:15 PM 69.8 °F - 35.6 °F 28% 30.24 in 10.0 mi North 8.1 mph - N/A   Clear
2:35 PM 69.8 °F - 35.6 °F 28% 30.24 in 10.0 mi NE 5.8 mph 9.2 mph N/A   Clear
2:55 PM 69.8 °F - 35.6 °F 28% 30.24 in 10.0 mi NNE 8.1 mph - N/A   Clear
3:15 PM 69.8 °F - 35.6 °F 28% 30.23 in 10.0 mi NNE 5.8 mph - N/A   Clear
3:35 PM 69.8 °F - 35.6 °F 28% 30.24 in 10.0 mi North 10.4 mph - N/A   Clear
3:55 PM 69.8 °F - 35.6 °F 28% 30.24 in 10.0 mi NNE 6.9 mph - N/A   Clear
4:15 PM 69.8 °F - 35.6 °F 28% 30.24 in 10.0 mi NNE 6.9 mph - N/A   Clear
4:35 PM 68.0 °F - 37.4 °F 33% 30.24 in 10.0 mi NNE 5.8 mph - N/A   Clear
4:55 PM 68.0 °F - 37.4 °F 33% 30.25 in 10.0 mi North 4.6 mph - N/A   Clear
5:15 PM 64.4 °F - 39.2 °F 40% 30.25 in 10.0 mi North 4.6 mph - N/A   Clear
5:35 PM 62.6 °F - 39.2 °F 42% 30.25 in 10.0 mi NNE 4.6 mph - N/A   Clear
5:55 PM 59.0 °F - 41.0 °F 51% 30.25 in 10.0 mi Calm Calm - N/A   Clear
6:15 PM 57.2 °F - 44.6 °F 63% 30.26 in 10.0 mi Calm Calm - N/A   Clear
6:35 PM 53.6 °F - 42.8 °F 67% 30.26 in 10.0 mi Calm Calm - N/A   Clear
6:55 PM 51.8 °F - 42.8 °F 71% 30.26 in 10.0 mi Calm Calm - N/A   Clear
7:15 PM 50.0 °F - 44.6 °F 82% 30.26 in 10.0 mi Calm Calm - N/A   Clear
7:35 PM 46.4 °F - 42.8 °F 87% 30.27 in 10.0 mi Calm Calm - N/A   Clear
7:55 PM 46.4 °F 45.2 °F 42.8 °F 87% 30.27 in 10.0 mi North 3.5 mph - N/A   Clear
8:15 PM 46.4 °F - 42.8 °F 87% 30.28 in 10.0 mi Calm Calm - N/A   Clear
8:35 PM 44.6 °F - 42.8 °F 93% 30.28 in 10.0 mi Calm Calm - N/A   Clear
8:55 PM 42.8 °F - 42.8 °F 100% 30.28 in 10.0 mi Calm Calm - N/A   Clear
9:15 PM 44.6 °F - 44.6 °F 100% 30.29 in 10.0 mi Calm Calm - N/A   Clear
9:35 PM 44.6 °F - 42.8 °F 93% 30.29 in 10.0 mi Calm Calm - N/A   Clear
9:55 PM 42.8 °F - 42.8 °F 100% 30.30 in 10.0 mi Calm Calm - N/A   Clear
10:15 PM 42.8 °F - 42.8 °F 100% 30.30 in 10.0 mi Calm Calm - N/A   Clear
10:35 PM 41.0 °F - 41.0 °F 100% 30.30 in 10.0 mi Calm Calm - N/A   Clear
10:55 PM 42.8 °F - 41.0 °F 93% 30.30 in 10.0 mi Calm Calm - N/A   Clear
11:15 PM 41.0 °F 39.0 °F 41.0 °F 100% 30.30 in 10.0 mi North 3.5 mph - N/A   Clear
11:35 PM 37.4 °F - 37.4 °F 100% 30.30 in 10.0 mi Calm Calm - N/A   Clear
11:55 PM 39.2 °F - 39.2 °F 100% 30.30 in 10.0 mi Calm Calm - N/A   Clear